Decimomannu, Italy

8:14 AM CET on March 24, 2017 (GMT +0100)
Decimomannu Mil

Weather History for LIED - April, 2013

Change the Weather History Date:

Thursday, April 18, 2013

  Actual Average Record
Temperature  
Mean Temperature 63 °F -  
Max Temperature 81 °F 72 °F 81 °F (2013)
Min Temperature 45 °F 49 °F 38 °F (2014)
Degree Days  
Heating Degree Days 2    
Growing Degree Days 13 (Base 50)    
Moisture  
Dew Point 51 °F    
Average Humidity 65    
Maximum Humidity 93    
Minimum Humidity 32    
Precipitation  
Precipitation 0.00 in 0.04 in - ()
Sea Level Pressure  
Sea Level Pressure 30.12 in    
Wind  
Wind Speed 4 mph ()    
Max Wind Speed 12 mph    
Max Gust Speed -    
Visibility 9.6 miles    
Events      
Averages and records for this station are not official NWS values.
T = Trace of Precipitation, MM = Missing Value Source: Averaged Metar Reports

Daily Weather History Graph

Daily Weather History Graph

Search for Another Location

Airport or City:

Trip Planner

Search our weather history database for the weather conditions in past years. The results will help you decide how hot, cold, wet, or windy it might be!

Date:

Astronomy

Apr. 18, 2013 Rise Set
Actual Time 6:42 AM CEST 8:04 PM CEST
Civil Twilight 6:14 AM CEST 8:32 PM CEST
Nautical Twilight 5:41 AM CEST 9:06 PM CEST
Astronomical Twilight 5:06 AM CEST 9:41 PM CEST
Moon 12:38 PM CEST (4/18) 2:09 AM CEST (4/18)
Length of Visible Light 14h 17m
Length of Day
13h 21m
Waxing Crescent, 49% of the Moon is Illuminated
Apr 18
Waxing Crescent
Apr 18
First Quarter
Apr 25
Full
May 2
Last Quarter
May 10
New

Hourly Weather History & Observations

Time (CEST) Temp. Windchill Dew Point Humidity Pressure Visibility Wind Dir Wind Speed Gust Speed Precip Events Conditions
12:55 AM 53.6 °F - 50.0 °F 88% 30.18 in - NNE 2.3 mph - N/A   Clear
2:00 AM 50 °F - 47 °F 88% 30.19 in 9 mi NW 3.5 mph - -  
3:55 AM 46.4 °F 45.2 °F 42.8 °F 87% 30.15 in - NNW 3.5 mph - N/A   Clear
5:00 AM 46 °F - 43 °F 84% 30.17 in 7 mi NNW 3.5 mph - -  
5:55 AM 46.4 °F 44.3 °F 39.2 °F 76% 30.15 in - North 4.6 mph - N/A   Clear
6:55 AM 46.4 °F - 42.8 °F 87% 30.15 in - NNW 2.3 mph - N/A   Clear
7:55 AM 46.4 °F - 44.6 °F 93% 30.15 in - North 2.3 mph - N/A   Clear
8:00 AM 46 °F - 44 °F 91% 30.18 in 12 mi North 2.3 mph - -   Clear
8:55 AM 53.6 °F - 48.2 °F 82% 30.15 in - NNW 3.5 mph - N/A   Clear
10:55 AM 66.2 °F - 55.4 °F 68% 30.15 in - NW 3.5 mph - N/A   Clear
11:00 AM 66 °F - 54 °F 57% 30.17 in 16 mi NW 3.5 mph - -   Clear
11:55 AM 71.6 °F - 55.4 °F 57% 30.15 in 6.2 mi NNW 4.6 mph - N/A   Partly Cloudy
12:55 PM 75.2 °F - 55.4 °F 50% 30.12 in 6.2 mi WNW 4.6 mph - N/A   Partly Cloudy
1:55 PM 77.0 °F - 51.8 °F 41% 30.12 in 6.2 mi WNW 4.6 mph - N/A   Partly Cloudy
2:00 PM 77 °F - 53 °F 32% 30.13 in 16 mi WNW 4.6 mph - -   Scattered Clouds
2:55 PM 80.6 °F - 51.8 °F 37% 30.09 in 6.2 mi South 3.5 mph - N/A   Partly Cloudy
3:55 PM 78.8 °F - 53.6 °F 42% 30.06 in 6.2 mi SSE 11.5 mph - N/A   Partly Cloudy
4:55 PM 77.0 °F - 53.6 °F 44% 30.06 in 6.2 mi SE 10.4 mph - N/A   Partly Cloudy
5:00 PM 78 °F - 54 °F 33% 30.08 in 16 mi SE 10.4 mph - -   Scattered Clouds
5:55 PM 77.0 °F - 53.6 °F 44% 30.06 in 6.2 mi SSE 6.9 mph - N/A   Partly Cloudy
6:55 PM 73.4 °F - 55.4 °F 53% 30.06 in 6.2 mi NNW 6.9 mph - N/A   Partly Cloudy
7:55 PM 69.8 °F - 53.6 °F 56% 30.09 in 6.2 mi North 5.8 mph - N/A   Scattered Clouds
8:00 PM 70 °F - 54 °F 46% 30.09 in 16 mi North 5.8 mph - -   Scattered Clouds
8:55 PM 64.4 °F - 53.6 °F 68% 30.09 in - North 6.9 mph - N/A   Clear
10:55 PM 59.0 °F - 55.4 °F 88% 30.09 in - NNE 4.6 mph - N/A   Clear
11:00 PM 59 °F - 56 °F 87% 30.11 in 16 mi NNE 4.6 mph - -